This is the latest recevied weather packets stored in our database for station/object WX5KDM. If no packets are shown the sender has not sent any weather packets the latest 10 day(s).
| Time | Temp. | Humidity | Pressure | Rain* | Wind** | Luminosity | Snow |
|---|---|---|---|---|---|---|---|
| 1777829465 | 20.56° C | 38% | 1022.5 hPa | 0 mm | - | - | - |
| 1777829162 | 20° C | 39% | 1022.5 hPa | 0 mm | - | - | - |
| 1777828860 | 20° C | 41% | 1022.6 hPa | 0 mm | - | - | - |
| 1777828556 | 20° C | 41% | 1022.7 hPa | 0 mm | - | - | - |
| 1777828253 | 20° C | 40% | 1022.8 hPa | 0 mm | - | - | - |
| 1777827949 | 19.44° C | 46% | 1023 hPa | 0 mm | - | - | - |
| 1777827647 | 18.89° C | 44% | 1023 hPa | 0 mm | - | - | - |
| 1777827344 | 19.44° C | 41% | 1022.9 hPa | 0 mm | - | - | - |
| 1777827040 | 19.44° C | 44% | 1023.1 hPa | 0 mm | - | - | - |
| 1777826737 | 18.89° C | 46% | 1023.2 hPa | 0 mm | - | - | - |
| 1777826434 | 19.44° C | 44% | 1023.2 hPa | 0 mm | - | - | - |
| 1777826131 | 18.89° C | 47% | 1023 hPa | 0 mm | - | - | - |
| 1777825828 | 19.44° C | 45% | 1023.2 hPa | 0 mm | - | - | - |
| 1777825525 | 18.89° C | 45% | 1023.1 hPa | 0 mm | - | - | - |
| 1777825223 | 18.89° C | 46% | 1023.2 hPa | 0 mm | - | - | - |
| 1777824920 | 19.44° C | 43% | 1023.3 hPa | 0 mm | - | - | - |
| 1777824616 | 19.44° C | 46% | 1023.2 hPa | 0 mm | - | - | - |
| 1777824313 | 18.89° C | 48% | 1023.3 hPa | 0 mm | - | - | - |
| 1777824009 | 17.78° C | 44% | 1023.3 hPa | 0 mm | - | - | - |
| 1777823705 | 18.33° C | 47% | 1023.5 hPa | 0 mm | - | - | - |
| 1777823402 | 17.78° C | 47% | 1023.6 hPa | 0 mm | - | - | - |
| 1777823100 | 18.33° C | 48% | 1023.5 hPa | 0 mm | - | - | - |
| 1777822797 | 17.78° C | 48% | 1023.5 hPa | 0 mm | - | - | - |
| 1777822495 | 17.78° C | 51% | 1023.5 hPa | 0 mm | - | - | - |
| 1777822192 | 17.78° C | 51% | 1023.6 hPa | 0 mm | - | - | - |
* Rain latest hour (hover to see other rain measurements)
** Current wind speed in m/s (hover to see current wind gust speed)